Tracking 31027 objects as of 18-Jul-2025
HD Live streaming from Space Station
objects crossing your sky now

DELTA 1 DEB

Track DELTA 1 DEB now!
10-day predictions


NORAD ID: 7134
Int'l Code: 1973-086CY
Perigee: 1,446.0 km
Apogee: 1,473.2 km
Inclination: 101.8 °
Period: 114.9 minutes
Semi major axis: 7830 km
RCS: 0.1006 m2 (medium)
Launch date: November 6, 1973
Source: United States (US)
Launch site: AIR FORCE WESTERN TEST RANGE (AFWTR)

Note: This is SATELLITE DEBRIS
Your satellite tracking list
Your tracking list is empty




NASA's NSSDC Master Catalog

Two Line Element Set (TLE):
1 07134U 73086CY  25198.83074876  .00000073  00000-0  74621-3 0  9990
2 07134 101.8444 330.0607 0017351 182.2775 333.3539 12.52873826358196
Source of the keplerian elements: AFSPC